Time,TemperatureF,DewpointF,PressureIn,WindDirection,WindDirectionDegrees,WindSpeedMPH,WindSpeedGustMPH,Humidity,HourlyPrecipIn,Conditions,Clouds,dailyrainin,SoftwareType,DateUTC
2013-01-30 00:01:00,57.7,50.9,29.25,NE,45,0.6,0.0,78,0.00,RA,SKC,0.00,WeatherDisplay:10.37,2013-01-30 05:01:00,
2013-01-30 00:03:00,57.7,50.9,29.25,NE,45,0.6,0.0,78,0.00,RA,SKC,0.00,WeatherDisplay:10.37,2013-01-30 05:03:00,
2013-01-30 00:08:00,57.7,50.9,29.25,NE,45,0.6,0.0,78,0.00,RA,SKC,0.00,WeatherDisplay:10.37,2013-01-30 05:08:00,
2013-01-30 00:13:00,57.7,50.9,29.25,NE,45,0.6,0.0,78,0.00,CLR,SKC,0.00,WeatherDisplay:10.37,2013-01-30 05:13:00,
2013-01-30 00:18:00,57.7,50.9,29.25,NE,45,0.6,0.0,78,0.00,CLR,SKC,0.00,WeatherDisplay:10.37,2013-01-30 05:18:00,
2013-01-30 00:23:00,57.7,50.9,29.25,NE,45,0.6,0.0,78,0.00,CLR,SKC,0.00,WeatherDisplay:10.37,2013-01-30 05:23:00,
2013-01-30 00:28:00,57.7,50.9,29.25,NE,45,0.6,0.0,78,0.00,CLR,SKC,0.00,WeatherDisplay:10.37,2013-01-30 05:28:00,
2013-01-30 00:33:00,57.7,50.9,29.25,NE,45,0.6,0.0,78,0.00,CLR,SKC,0.00,WeatherDisplay:10.37,2013-01-30 05:33:00,
2013-01-30 00:38:00,57.7,50.9,29.25,NE,45,0.6,0.0,78,0.00,CLR,SKC,0.00,WeatherDisplay:10.37,2013-01-30 05:38:00,
2013-01-30 00:43:00,57.7,50.9,29.25,NE,45,0.6,0.0,78,0.00,CLR,SKC,0.00,WeatherDisplay:10.37,2013-01-30 05:43:00,
2013-01-30 00:48:00,53.8,46.7,29.33,WNW,292,6.4,11.5,77,0.07,RA,SKC,0.35,WeatherDisplay:10.37,2013-01-30 05:48:00,
2013-01-30 00:53:00,53.6,46.6,29.34,WNW,292,9.9,12.7,77,0.09,RA,SKC,0.37,WeatherDisplay:10.37,2013-01-30 05:53:00,
2013-01-30 00:58:00,53.6,46.6,29.34,WNW,292,9.9,12.7,77,0.09,RA,SKC,0.37,WeatherDisplay:10.37,2013-01-30 05:58:00,
2013-01-30 01:03:00,53.6,46.6,29.34,WNW,292,9.9,12.7,77,0.37,CLR,SKC,0.37,WeatherDisplay:10.37,2013-01-30 06:03:00,
2013-01-30 01:08:00,53.6,46.6,29.34,WNW,292,9.9,12.7,77,0.37,CLR,SKC,0.37,WeatherDisplay:10.37,2013-01-30 06:08:00,
2013-01-30 01:13:00,53.6,46.6,29.34,WNW,292,9.9,12.7,77,0.37,CLR,SKC,0.37,WeatherDisplay:10.37,2013-01-30 06:13:00,
2013-01-30 01:18:00,53.6,46.6,29.34,WNW,292,9.9,12.7,77,0.37,CLR,SKC,0.37,WeatherDisplay:10.37,2013-01-30 06:18:00,
2013-01-30 01:23:00,53.6,46.6,29.34,WNW,292,9.9,12.7,77,0.37,CLR,SKC,0.37,WeatherDisplay:10.37,2013-01-30 06:23:00,
2013-01-30 01:28:00,53.2,45.5,29.35,NW,315,5.4,12.7,75,0.37,CLR,SKC,0.37,WeatherDisplay:10.37,2013-01-30 06:28:00,
2013-01-30 01:33:00,53.2,45.5,29.35,WNW,292,1.7,3.5,75,0.37,CLR,SKC,0.37,WeatherDisplay:10.37,2013-01-30 06:33:00,
2013-01-30 01:38:00,53.2,45.5,29.35,WNW,292,1.7,3.5,75,0.37,CLR,SKC,0.37,WeatherDisplay:10.37,2013-01-30 06:38:00,
2013-01-30 01:43:00,53.2,45.5,29.35,WNW,292,1.7,3.5,75,0.37,CLR,SKC,0.37,WeatherDisplay:10.37,2013-01-30 06:43:00,
2013-01-30 01:48:00,53.2,45.9,29.33,North,0,3.1,3.5,76,0.02,CLR,SKC,0.37,WeatherDisplay:10.37,2013-01-30 06:48:00,
2013-01-30 01:53:00,53.2,45.9,29.33,North,0,2.5,0.0,76,0.00,CLR,SKC,0.37,WeatherDisplay:10.37,2013-01-30 06:53:00,
2013-01-30 01:58:00,53.2,45.9,29.33,North,0,2.5,0.0,76,0.00,CLR,SKC,0.37,WeatherDisplay:10.37,2013-01-30 06:58:00,
2013-01-30 02:03:00,53.2,45.9,29.33,North,0,2.5,0.0,76,0.00,CLR,SKC,0.37,WeatherDisplay:10.37,2013-01-30 07:03:00,
2013-01-30 02:08:00,53.2,45.9,29.33,North,0,2.5,0.0,76,0.00,CLR,SKC,0.37,WeatherDisplay:10.37,2013-01-30 07:08:00,
2013-01-30 02:13:00,53.2,45.9,29.33,North,0,2.5,0.0,76,0.00,CLR,SKC,0.37,WeatherDisplay:10.37,2013-01-30 07:13:00,
2013-01-30 02:18:00,52.5,45.2,29.31,NNW,338,0.0,0.0,76,0.02,RA,SKC,0.39,WeatherDisplay:10.37,2013-01-30 07:18:00,
2013-01-30 02:23:00,52.5,45.2,29.31,NNW,338,0.0,0.0,76,0.02,RA,SKC,0.39,WeatherDisplay:10.37,2013-01-30 07:23:00,
2013-01-30 02:28:00,52.5,45.2,29.31,NNW,338,0.0,0.0,76,0.02,CLR,SKC,0.39,WeatherDisplay:10.37,2013-01-30 07:28:00,
2013-01-30 02:33:00,52.5,45.2,29.31,NNW,338,0.0,0.0,76,0.02,CLR,SKC,0.39,WeatherDisplay:10.37,2013-01-30 07:33:00,
2013-01-30 02:38:00,52.5,45.2,29.31,NNW,338,0.0,0.0,76,0.02,CLR,SKC,0.39,WeatherDisplay:10.37,2013-01-30 07:38:00,
2013-01-30 02:43:00,52.5,45.2,29.31,NNW,338,0.0,0.0,76,0.02,CLR,SKC,0.39,WeatherDisplay:10.37,2013-01-30 07:43:00,
2013-01-30 02:48:00,52.5,45.2,29.31,NNW,338,0.0,0.0,76,0.02,CLR,SKC,0.39,WeatherDisplay:10.37,2013-01-30 07:48:00,
2013-01-30 02:53:00,52.5,45.2,29.31,NNW,338,0.0,0.0,76,0.02,CLR,SKC,0.39,WeatherDisplay:10.37,2013-01-30 07:53:00,
2013-01-30 02:58:00,52.5,45.2,29.31,NNW,338,0.0,0.0,76,0.02,CLR,SKC,0.39,WeatherDisplay:10.37,2013-01-30 07:58:00,
2013-01-30 03:03:00,52.5,45.2,29.31,NNW,338,0.0,0.0,76,0.02,CLR,SKC,0.39,WeatherDisplay:10.37,2013-01-30 08:03:00,
2013-01-30 03:08:00,52.5,45.2,29.31,NNW,338,0.0,0.0,76,0.02,CLR,SKC,0.39,WeatherDisplay:10.37,2013-01-30 08:08:00,
2013-01-30 03:13:00,52.5,45.2,29.31,NNW,338,0.0,0.0,76,0.02,CLR,SKC,0.39,WeatherDisplay:10.37,2013-01-30 08:13:00,
2013-01-30 03:18:00,52.5,45.2,29.31,NNW,338,0.0,0.0,76,0.00,CLR,SKC,0.39,WeatherDisplay:10.37,2013-01-30 08:18:00,
2013-01-30 03:23:00,52.5,45.2,29.31,NNW,338,0.0,0.0,76,0.00,CLR,SKC,0.39,WeatherDisplay:10.37,2013-01-30 08:23:00,
2013-01-30 03:28:00,52.5,45.2,29.31,NNW,338,0.0,0.0,76,0.00,CLR,SKC,0.39,WeatherDisplay:10.37,2013-01-30 08:28:00,
2013-01-30 03:33:00,51.4,43.8,29.31,South,180,0.3,2.3,75,0.02,RA,SKC,0.41,WeatherDisplay:10.37,2013-01-30 08:33:00,
2013-01-30 03:38:00,51.4,43.8,29.31,South,180,0.3,2.3,75,0.02,RA,SKC,0.41,WeatherDisplay:10.37,2013-01-30 08:38:00,
2013-01-30 03:43:00,51.4,43.8,29.31,South,180,0.3,2.3,75,0.02,,SKC,0.41,WeatherDisplay:10.37,2013-01-30 08:43:00,
2013-01-30 03:48:00,51.4,43.8,29.31,South,180,0.3,2.3,75,0.02,CLR,SKC,0.41,WeatherDisplay:10.37,2013-01-30 08:48:00,
2013-01-30 03:53:00,51.4,43.8,29.31,South,180,0.3,2.3,75,0.02,CLR,SKC,0.41,WeatherDisplay:10.37,2013-01-30 08:53:00,
2013-01-30 03:58:00,51.4,43.8,29.31,South,180,0.3,2.3,75,0.02,CLR,SKC,0.41,WeatherDisplay:10.37,2013-01-30 08:58:00,
2013-01-30 04:03:00,51.4,43.8,29.31,South,180,0.3,2.3,75,0.02,CLR,SKC,0.41,WeatherDisplay:10.37,2013-01-30 09:03:00,
2013-01-30 04:08:00,51.4,43.8,29.31,South,180,0.3,2.3,75,0.02,CLR,SKC,0.41,WeatherDisplay:10.37,2013-01-30 09:08:00,
2013-01-30 04:13:00,51.4,43.8,29.31,South,180,0.3,2.3,75,0.02,CLR,SKC,0.41,WeatherDisplay:10.37,2013-01-30 09:13:00,
2013-01-30 04:18:00,51.4,43.8,29.31,South,180,0.3,2.3,75,0.02,CLR,SKC,0.41,WeatherDisplay:10.37,2013-01-30 09:18:00,
2013-01-30 04:23:00,50.9,42.9,29.31,South,180,1.5,2.3,74,0.02,CLR,SKC,0.43,WeatherDisplay:10.37,2013-01-30 09:23:00,
2013-01-30 04:28:00,50.9,42.9,29.31,South,180,1.5,1.5,74,0.04,RA,SKC,0.43,WeatherDisplay:10.37,2013-01-30 09:28:00,
2013-01-30 04:33:00,50.9,42.9,29.31,South,180,1.5,1.5,74,0.02,RA,SKC,0.43,WeatherDisplay:10.37,2013-01-30 09:33:00,
2013-01-30 04:38:00,50.9,42.9,29.31,South,180,1.5,1.5,74,0.02,CLR,SKC,0.43,WeatherDisplay:10.37,2013-01-30 09:38:00,
2013-01-30 04:43:00,50.9,42.9,29.31,South,180,1.5,1.5,74,0.02,CLR,SKC,0.43,WeatherDisplay:10.37,2013-01-30 09:43:00,
2013-01-30 04:48:00,50.9,42.9,29.31,South,180,1.5,1.5,74,0.02,CLR,SKC,0.43,WeatherDisplay:10.37,2013-01-30 09:48:00,
2013-01-30 04:53:00,50.9,42.9,29.31,South,180,1.5,1.5,74,0.02,CLR,SKC,0.43,WeatherDisplay:10.37,2013-01-30 09:53:00,
2013-01-30 04:58:00,50.9,42.9,29.31,South,180,1.5,1.5,74,0.02,CLR,SKC,0.43,WeatherDisplay:10.37,2013-01-30 09:58:00,
2013-01-30 05:03:00,50.9,42.9,29.31,South,180,1.5,1.5,74,0.02,CLR,SKC,0.43,WeatherDisplay:10.37,2013-01-30 10:03:00,
2013-01-30 05:08:00,50.9,42.9,29.31,South,180,1.5,1.5,74,0.02,CLR,SKC,0.43,WeatherDisplay:10.37,2013-01-30 10:08:00,
2013-01-30 05:13:00,50.9,42.9,29.31,South,180,1.5,1.5,74,0.02,CLR,SKC,0.43,WeatherDisplay:10.37,2013-01-30 10:13:00,
2013-01-30 05:18:00,50.9,42.9,29.31,South,180,1.5,1.5,74,0.02,CLR,SKC,0.43,WeatherDisplay:10.37,2013-01-30 10:18:00,
2013-01-30 05:23:00,50.9,42.9,29.31,South,180,1.5,1.5,74,0.02,CLR,SKC,0.43,WeatherDisplay:10.37,2013-01-30 10:23:00,
2013-01-30 05:28:00,50.9,42.9,29.31,South,180,1.5,1.5,74,0.00,CLR,SKC,0.43,WeatherDisplay:10.37,2013-01-30 10:28:00,
2013-01-30 05:33:00,50.9,42.9,29.31,South,180,1.5,1.5,74,0.00,CLR,SKC,0.43,WeatherDisplay:10.37,2013-01-30 10:33:00,
2013-01-30 05:38:00,50.9,42.9,29.31,South,180,1.5,1.5,74,0.00,CLR,SKC,0.43,WeatherDisplay:10.37,2013-01-30 10:38:00,
2013-01-30 05:43:00,50.9,42.9,29.31,South,180,1.5,1.5,74,0.00,CLR,SKC,0.43,WeatherDisplay:10.37,2013-01-30 10:43:00,
2013-01-30 05:48:00,50.9,42.9,29.31,South,180,1.5,1.5,74,0.00,CLR,SKC,0.43,WeatherDisplay:10.37,2013-01-30 10:48:00,
2013-01-30 05:53:00,50.9,42.9,29.31,South,180,1.5,1.5,74,0.00,CLR,SKC,0.43,WeatherDisplay:10.37,2013-01-30 10:53:00,
2013-01-30 05:58:00,50.9,42.9,29.31,South,180,1.5,1.5,74,0.00,CLR,SKC,0.43,WeatherDisplay:10.37,2013-01-30 10:58:00,
2013-01-30 06:03:00,50.9,42.9,29.31,South,180,1.5,1.5,74,0.00,CLR,SKC,0.43,WeatherDisplay:10.37,2013-01-30 11:03:00,
2013-01-30 06:08:00,50.9,42.9,29.31,South,180,1.5,1.5,74,0.00,CLR,SKC,0.43,WeatherDisplay:10.37,2013-01-30 11:08:00,
2013-01-30 06:13:00,50.9,42.9,29.31,South,180,1.5,1.5,74,0.00,CLR,SKC,0.43,WeatherDisplay:10.37,2013-01-30 11:13:00,
2013-01-30 06:18:00,50.9,42.9,29.31,South,180,1.5,1.5,74,0.00,CLR,SKC,0.43,WeatherDisplay:10.37,2013-01-30 11:18:00,
2013-01-30 06:23:00,50.9,42.9,29.31,South,180,1.5,1.5,74,0.00,CLR,SKC,0.43,WeatherDisplay:10.37,2013-01-30 11:23:00,
2013-01-30 06:28:00,50.9,42.9,29.31,South,180,1.5,1.5,74,0.00,CLR,SKC,0.43,WeatherDisplay:10.37,2013-01-30 11:28:00,
2013-01-30 06:33:00,50.9,42.9,29.31,South,180,1.5,1.5,74,0.00,CLR,SKC,0.43,WeatherDisplay:10.37,2013-01-30 11:33:00,
2013-01-30 06:38:00,50.9,42.9,29.31,South,180,1.5,1.5,74,0.00,CLR,SKC,0.43,WeatherDisplay:10.37,2013-01-30 11:38:00,
2013-01-30 06:43:00,50.9,42.9,29.31,South,180,1.5,1.5,74,0.00,CLR,SKC,0.43,WeatherDisplay:10.37,2013-01-30 11:43:00,
2013-01-30 06:48:00,50.9,42.9,29.31,South,180,1.5,1.5,74,0.00,CLR,SKC,0.43,WeatherDisplay:10.37,2013-01-30 11:48:00,
2013-01-30 06:53:00,50.9,42.9,29.31,South,180,1.5,1.5,74,0.00,CLR,SKC,0.43,WeatherDisplay:10.37,2013-01-30 11:53:00,
2013-01-30 06:58:00,50.9,42.9,29.31,WSW,248,1.0,3.5,74,0.00,CLR,SKC,0.43,WeatherDisplay:10.37,2013-01-30 11:58:00,
2013-01-30 07:03:00,50.9,42.9,29.31,WSW,248,1.0,3.5,74,0.00,CLR,SKC,0.43,WeatherDisplay:10.37,2013-01-30 12:03:00,
2013-01-30 07:08:00,50.9,42.9,29.31,WSW,248,1.0,3.5,74,0.00,CLR,SKC,0.43,WeatherDisplay:10.37,2013-01-30 12:08:00,
2013-01-30 07:13:00,50.9,42.9,29.31,WSW,248,1.0,3.5,74,0.00,CLR,SKC,0.43,WeatherDisplay:10.37,2013-01-30 12:13:00,
2013-01-30 07:18:00,50.9,42.9,29.31,WSW,248,1.0,3.5,74,0.00,CLR,SKC,0.43,WeatherDisplay:10.37,2013-01-30 12:18:00,
2013-01-30 07:23:00,50.9,42.9,29.31,WSW,248,1.0,3.5,74,0.00,CLR,SKC,0.43,WeatherDisplay:10.37,2013-01-30 12:23:00,
2013-01-30 07:28:00,50.9,42.9,29.31,WSW,248,1.0,3.5,74,0.00,CLR,SKC,0.43,WeatherDisplay:10.37,2013-01-30 12:28:00,
2013-01-30 07:33:00,50.9,42.9,29.31,WSW,248,1.0,3.5,74,0.00,CLR,SKC,0.43,WeatherDisplay:10.37,2013-01-30 12:33:00,
2013-01-30 07:38:00,50.9,42.9,29.31,WSW,248,1.0,3.5,74,0.00,CLR,SKC,0.43,WeatherDisplay:10.37,2013-01-30 12:38:00,
2013-01-30 07:43:00,50.9,42.9,29.31,WSW,248,1.0,3.5,74,0.00,CLR,SKC,0.43,WeatherDisplay:10.37,2013-01-30 12:43:00,
2013-01-30 07:48:00,50.9,42.9,29.31,WSW,248,1.0,3.5,74,0.00,CLR,SKC,0.43,WeatherDisplay:10.37,2013-01-30 12:48:00,
2013-01-30 07:53:00,50.9,42.9,29.31,WSW,248,1.0,3.5,74,0.00,CLR,SKC,0.43,WeatherDisplay:10.37,2013-01-30 12:53:00,
2013-01-30 07:58:00,50.9,42.9,29.31,WSW,248,1.0,3.5,74,0.00,CLR,SKC,0.43,WeatherDisplay:10.37,2013-01-30 12:58:00,
2013-01-30 08:03:00,50.9,42.9,29.31,WSW,248,1.0,3.5,74,0.00,CLR,SKC,0.43,WeatherDisplay:10.37,2013-01-30 13:03:00,
2013-01-30 08:08:00,50.9,42.9,29.31,SW,225,3.3,0.0,74,0.00,CLR,SKC,0.43,WeatherDisplay:10.37,2013-01-30 13:08:00,
2013-01-30 08:13:00,50.9,42.9,29.31,SW,225,3.3,0.0,74,0.00,CLR,SKC,0.43,WeatherDisplay:10.37,2013-01-30 13:13:00,
2013-01-30 08:18:00,50.9,42.9,29.31,SW,225,3.3,0.0,74,0.00,CLR,SKC,0.43,WeatherDisplay:10.37,2013-01-30 13:18:00,
2013-01-30 08:23:00,50.9,42.9,29.31,SW,225,3.3,0.0,74,0.00,CLR,SKC,0.43,WeatherDisplay:10.37,2013-01-30 13:23:00,
2013-01-30 08:28:00,50.9,42.9,29.31,SW,225,3.3,0.0,74,0.00,CLR,SKC,0.43,WeatherDisplay:10.37,2013-01-30 13:28:00,
2013-01-30 08:33:00,50.9,42.9,29.31,SW,225,3.3,0.0,74,0.00,CLR,SKC,0.43,WeatherDisplay:10.37,2013-01-30 13:33:00,
2013-01-30 08:38:00,50.9,42.9,29.31,SW,225,3.3,0.0,74,0.00,CLR,SKC,0.43,WeatherDisplay:10.37,2013-01-30 13:38:00,
2013-01-30 08:43:00,50.9,42.9,29.31,SW,225,3.3,0.0,74,0.00,CLR,SKC,0.43,WeatherDisplay:10.37,2013-01-30 13:43:00,
2013-01-30 08:48:00,50.9,42.9,29.31,SW,225,3.3,0.0,74,0.00,CLR,SKC,0.43,WeatherDisplay:10.37,2013-01-30 13:48:00,
2013-01-30 08:53:00,50.9,42.9,29.31,SW,225,3.3,0.0,74,0.00,CLR,SKC,0.43,WeatherDisplay:10.37,2013-01-30 13:53:00,
2013-01-30 08:58:00,50.9,42.9,29.31,SW,225,3.3,0.0,74,0.00,CLR,SKC,0.43,WeatherDisplay:10.37,2013-01-30 13:58:00,
2013-01-30 09:03:00,50.9,42.9,29.31,SW,225,3.3,0.0,74,0.00,CLR,SKC,0.43,WeatherDisplay:10.37,2013-01-30 14:03:00,
2013-01-30 09:08:00,50.9,42.9,29.31,SW,225,3.3,0.0,74,0.00,CLR,SKC,0.43,WeatherDisplay:10.37,2013-01-30 14:08:00,
2013-01-30 09:13:00,50.9,42.9,29.31,SW,225,3.3,0.0,74,0.00,CLR,SKC,0.43,WeatherDisplay:10.37,2013-01-30 14:13:00,
2013-01-30 09:18:00,50.9,42.9,29.31,SW,225,3.3,0.0,74,0.00,CLR,SKC,0.43,WeatherDisplay:10.37,2013-01-30 14:18:00,
2013-01-30 09:23:00,50.9,42.9,29.31,SW,225,3.3,0.0,74,0.00,CLR,SKC,0.43,WeatherDisplay:10.37,2013-01-30 14:23:00,
2013-01-30 09:28:00,50.9,42.9,29.31,SW,225,3.3,0.0,74,0.00,CLR,SKC,0.43,WeatherDisplay:10.37,2013-01-30 14:28:00,
2013-01-30 09:33:00,50.9,42.9,29.31,SW,225,3.3,0.0,74,0.00,CLR,SKC,0.43,WeatherDisplay:10.37,2013-01-30 14:33:00,
2013-01-30 09:38:00,50.9,42.9,29.31,SW,225,3.3,0.0,74,0.00,CLR,SKC,0.43,WeatherDisplay:10.37,2013-01-30 14:38:00,
2013-01-30 09:43:00,50.9,42.9,29.31,SW,225,3.3,0.0,74,0.00,CLR,SKC,0.43,WeatherDisplay:10.37,2013-01-30 14:43:00,
2013-01-30 09:48:00,50.9,42.9,29.31,SW,225,3.3,0.0,74,0.00,CLR,SKC,0.43,WeatherDisplay:10.37,2013-01-30 14:48:00,
2013-01-30 09:53:00,50.9,42.9,29.31,SW,225,3.3,0.0,74,0.00,CLR,SKC,0.43,WeatherDisplay:10.37,2013-01-30 14:53:00,
2013-01-30 09:58:00,50.9,42.9,29.31,SW,225,3.3,0.0,74,0.00,CLR,SKC,0.43,WeatherDisplay:10.37,2013-01-30 14:58:00,
2013-01-30 10:03:00,50.9,42.9,29.31,SW,225,3.3,0.0,74,0.00,CLR,SKC,0.43,WeatherDisplay:10.37,2013-01-30 15:03:00,
2013-01-30 10:08:00,50.9,42.9,29.31,SW,225,3.3,0.0,74,0.00,CLR,SKC,0.43,WeatherDisplay:10.37,2013-01-30 15:08:00,
2013-01-30 10:13:00,50.9,42.9,29.31,SW,225,3.3,0.0,74,0.00,CLR,SKC,0.43,WeatherDisplay:10.37,2013-01-30 15:13:00,
2013-01-30 10:18:00,50.9,42.9,29.31,SW,225,3.3,0.0,74,0.00,CLR,SKC,0.43,WeatherDisplay:10.37,2013-01-30 15:18:00,
2013-01-30 10:23:00,50.9,42.9,29.31,SW,225,3.3,0.0,74,0.00,CLR,SKC,0.43,WeatherDisplay:10.37,2013-01-30 15:23:00,
2013-01-30 10:28:00,50.9,42.9,29.31,SW,225,3.3,0.0,74,0.00,CLR,SKC,0.43,WeatherDisplay:10.37,2013-01-30 15:28:00,
2013-01-30 10:33:00,50.9,42.9,29.31,SW,225,3.3,0.0,74,0.00,CLR,SKC,0.43,WeatherDisplay:10.37,2013-01-30 15:33:00,
2013-01-30 10:38:00,50.9,42.9,29.31,SW,225,3.3,0.0,74,0.00,CLR,SKC,0.43,WeatherDisplay:10.37,2013-01-30 15:38:00,
2013-01-30 10:43:00,50.9,42.9,29.31,SW,225,3.3,0.0,74,0.00,CLR,SKC,0.43,WeatherDisplay:10.37,2013-01-30 15:43:00,
2013-01-30 10:48:00,50.9,42.9,29.31,SW,225,3.3,0.0,74,0.00,CLR,SKC,0.43,WeatherDisplay:10.37,2013-01-30 15:48:00,
2013-01-30 10:53:00,50.7,39.8,29.31,South,180,6.1,6.1,66,0.00,CLR,SKC,0.43,WeatherDisplay:10.37,2013-01-30 15:53:00,
2013-01-30 10:58:00,50.7,39.8,29.31,South,180,6.1,6.1,66,0.00,CLR,SKC,0.43,WeatherDisplay:10.37,2013-01-30 15:58:00,
2013-01-30 11:03:00,50.7,39.8,29.31,South,180,6.1,6.1,66,0.00,CLR,SKC,0.43,WeatherDisplay:10.37,2013-01-30 16:03:00,
2013-01-30 11:08:00,50.7,39.8,29.31,South,180,6.1,6.1,66,0.00,CLR,SKC,0.43,WeatherDisplay:10.37,2013-01-30 16:08:00,
2013-01-30 11:13:00,50.7,39.8,29.31,South,180,6.1,6.1,66,0.00,CLR,SKC,0.43,WeatherDisplay:10.37,2013-01-30 16:13:00,
2013-01-30 11:18:00,50.7,39.8,29.31,South,180,6.1,6.1,66,0.00,CLR,SKC,0.43,WeatherDisplay:10.37,2013-01-30 16:18:00,
2013-01-30 11:23:00,50.7,39.8,29.31,South,180,6.1,6.1,66,0.00,CLR,SKC,0.43,WeatherDisplay:10.37,2013-01-30 16:23:00,
2013-01-30 11:28:00,50.7,39.8,29.31,South,180,6.1,6.1,66,0.00,CLR,SKC,0.43,WeatherDisplay:10.37,2013-01-30 16:28:00,
2013-01-30 11:33:00,50.7,39.8,29.31,South,180,6.1,6.1,66,0.00,CLR,SKC,0.43,WeatherDisplay:10.37,2013-01-30 16:33:00,
2013-01-30 11:38:00,50.7,39.8,29.31,South,180,6.1,6.1,66,0.00,CLR,SKC,0.43,WeatherDisplay:10.37,2013-01-30 16:38:00,
2013-01-30 11:43:00,50.7,39.8,29.31,South,180,6.1,6.1,66,0.00,CLR,SKC,0.43,WeatherDisplay:10.37,2013-01-30 16:43:00,
2013-01-30 11:48:00,50.7,39.8,29.31,South,180,6.1,6.1,66,0.00,CLR,SKC,0.43,WeatherDisplay:10.37,2013-01-30 16:48:00,
2013-01-30 11:53:00,50.7,39.8,29.31,South,180,6.1,6.1,66,0.00,CLR,SKC,0.43,WeatherDisplay:10.37,2013-01-30 16:53:00,
2013-01-30 11:58:00,50.7,39.8,29.31,South,180,6.1,6.1,66,0.00,CLR,SKC,0.43,WeatherDisplay:10.37,2013-01-30 16:58:00,
2013-01-30 12:03:00,50.7,39.8,29.31,South,180,6.1,6.1,66,0.00,CLR,SKC,0.43,WeatherDisplay:10.37,2013-01-30 17:03:00,
2013-01-30 12:08:00,50.7,39.8,29.31,South,180,6.1,6.1,66,0.00,CLR,SKC,0.43,WeatherDisplay:10.37,2013-01-30 17:08:00,
2013-01-30 12:13:00,50.7,39.8,29.31,South,180,6.1,6.1,66,0.00,CLR,SKC,0.43,WeatherDisplay:10.37,2013-01-30 17:13:00,
2013-01-30 12:18:00,50.7,39.8,29.31,South,180,6.1,6.1,66,0.00,CLR,SKC,0.43,WeatherDisplay:10.37,2013-01-30 17:18:00,
2013-01-30 12:23:00,50.7,39.8,29.31,South,180,6.1,6.1,66,0.00,CLR,SKC,0.43,WeatherDisplay:10.37,2013-01-30 17:23:00,
2013-01-30 12:28:00,50.7,39.8,29.31,South,180,6.1,6.1,66,0.00,CLR,SKC,0.43,WeatherDisplay:10.37,2013-01-30 17:28:00,
2013-01-30 12:33:00,50.7,39.8,29.31,South,180,6.1,6.1,66,0.00,CLR,SKC,0.43,WeatherDisplay:10.37,2013-01-30 17:33:00,
2013-01-30 12:38:00,50.7,39.8,29.31,South,180,6.1,6.1,66,0.00,CLR,SKC,0.43,WeatherDisplay:10.37,2013-01-30 17:38:00,
2013-01-30 12:43:00,50.7,39.8,29.31,South,180,6.1,6.1,66,0.00,CLR,SKC,0.43,WeatherDisplay:10.37,2013-01-30 17:43:00,
2013-01-30 12:48:00,50.7,39.8,29.31,South,180,6.1,6.1,66,0.00,CLR,SKC,0.43,WeatherDisplay:10.37,2013-01-30 17:48:00,
2013-01-30 12:53:00,50.7,39.8,29.31,South,180,6.1,6.1,66,0.00,CLR,SKC,0.43,WeatherDisplay:10.37,2013-01-30 17:53:00,
2013-01-30 12:58:00,50.7,39.8,29.31,South,180,6.1,6.1,66,0.00,CLR,SKC,0.43,WeatherDisplay:10.37,2013-01-30 17:58:00,
2013-01-30 13:03:00,50.7,39.8,29.31,South,180,6.1,6.1,66,0.00,CLR,SKC,0.43,WeatherDisplay:10.37,2013-01-30 18:03:00,
2013-01-30 13:08:00,50.7,39.8,29.31,South,180,6.1,6.1,66,0.00,CLR,SKC,0.43,WeatherDisplay:10.37,2013-01-30 18:08:00,
2013-01-30 13:13:00,50.7,39.8,29.31,South,180,6.1,6.1,66,0.00,CLR,SKC,0.43,WeatherDisplay:10.37,2013-01-30 18:13:00,
2013-01-30 13:18:00,50.7,39.8,29.31,South,180,6.1,6.1,66,0.00,CLR,SKC,0.43,WeatherDisplay:10.37,2013-01-30 18:18:00,
2013-01-30 13:23:00,50.7,39.8,29.31,South,180,6.1,6.1,66,0.00,CLR,SKC,0.43,WeatherDisplay:10.37,2013-01-30 18:23:00,
2013-01-30 13:28:00,50.7,39.8,29.31,South,180,6.1,6.1,66,0.00,CLR,SKC,0.43,WeatherDisplay:10.37,2013-01-30 18:28:00,
2013-01-30 13:33:00,50.7,39.8,29.31,South,180,6.1,6.1,66,0.00,CLR,SKC,0.43,WeatherDisplay:10.37,2013-01-30 18:33:00,
2013-01-30 13:38:00,50.7,39.8,29.31,South,180,6.1,6.1,66,0.00,CLR,SKC,0.43,WeatherDisplay:10.37,2013-01-30 18:38:00,
2013-01-30 13:43:00,50.7,39.8,29.31,South,180,6.1,6.1,66,0.00,CLR,SKC,0.43,WeatherDisplay:10.37,2013-01-30 18:43:00,
2013-01-30 13:48:00,50.7,39.8,29.31,South,180,6.1,6.1,66,0.00,CLR,SKC,0.43,WeatherDisplay:10.37,2013-01-30 18:48:00,
2013-01-30 13:53:00,50.7,39.8,29.31,South,180,6.1,6.1,66,0.00,CLR,SKC,0.43,WeatherDisplay:10.37,2013-01-30 18:53:00,
2013-01-30 13:58:00,50.7,39.8,29.31,South,180,6.1,6.1,66,0.00,CLR,SKC,0.43,WeatherDisplay:10.37,2013-01-30 18:58:00,
2013-01-30 14:03:00,50.7,39.8,29.31,South,180,6.1,6.1,66,0.00,CLR,SKC,0.43,WeatherDisplay:10.37,2013-01-30 19:03:00,
2013-01-30 14:08:00,50.7,39.8,29.31,South,180,6.1,6.1,66,0.00,CLR,SKC,0.43,WeatherDisplay:10.37,2013-01-30 19:08:00,
2013-01-30 14:13:00,50.7,39.8,29.31,South,180,6.1,6.1,66,0.00,CLR,SKC,0.43,WeatherDisplay:10.37,2013-01-30 19:13:00,
2013-01-30 14:18:00,50.7,39.8,29.31,South,180,6.1,6.1,66,0.00,CLR,SKC,0.43,WeatherDisplay:10.37,2013-01-30 19:18:00,
2013-01-30 14:23:00,50.7,39.8,29.31,South,180,6.1,6.1,66,0.00,CLR,SKC,0.43,WeatherDisplay:10.37,2013-01-30 19:23:00,
2013-01-30 14:28:00,50.7,39.8,29.31,South,180,6.1,6.1,66,0.00,CLR,SKC,0.43,WeatherDisplay:10.37,2013-01-30 19:28:00,
2013-01-30 14:33:00,50.7,39.8,29.31,South,180,6.1,6.1,66,0.00,CLR,SKC,0.43,WeatherDisplay:10.37,2013-01-30 19:33:00,
2013-01-30 14:38:00,50.7,39.8,29.31,South,180,6.1,6.1,66,0.00,CLR,SKC,0.43,WeatherDisplay:10.37,2013-01-30 19:38:00,
2013-01-30 14:43:00,50.7,39.8,29.31,South,180,6.1,6.1,66,0.00,CLR,SKC,0.43,WeatherDisplay:10.37,2013-01-30 19:43:00,
2013-01-30 14:48:00,50.7,39.8,29.31,South,180,6.1,6.1,66,0.00,CLR,SKC,0.43,WeatherDisplay:10.37,2013-01-30 19:48:00,
2013-01-30 14:53:00,50.7,39.8,29.31,South,180,6.1,6.1,66,0.00,CLR,SKC,0.43,WeatherDisplay:10.37,2013-01-30 19:53:00,
2013-01-30 14:58:00,50.7,39.8,29.31,South,180,6.1,6.1,66,0.00,CLR,SKC,0.43,WeatherDisplay:10.37,2013-01-30 19:58:00,
2013-01-30 15:03:00,50.7,39.8,29.31,South,180,6.1,6.1,66,0.00,CLR,SKC,0.43,WeatherDisplay:10.37,2013-01-30 20:03:00,
2013-01-30 15:08:00,50.7,39.8,29.31,South,180,6.1,6.1,66,0.00,CLR,SKC,0.43,WeatherDisplay:10.37,2013-01-30 20:08:00,
2013-01-30 15:13:00,50.7,39.8,29.31,South,180,6.1,6.1,66,0.00,CLR,SKC,0.43,WeatherDisplay:10.37,2013-01-30 20:13:00,
2013-01-30 15:18:00,50.7,39.8,29.31,South,180,6.1,6.1,66,0.00,CLR,SKC,0.43,WeatherDisplay:10.37,2013-01-30 20:18:00,
2013-01-30 15:23:00,50.7,39.8,29.31,South,180,6.1,6.1,66,0.00,CLR,SKC,0.43,WeatherDisplay:10.37,2013-01-30 20:23:00,
2013-01-30 15:28:00,50.7,39.8,29.31,South,180,6.1,6.1,66,0.00,CLR,SKC,0.43,WeatherDisplay:10.37,2013-01-30 20:28:00,
2013-01-30 15:33:00,50.7,39.8,29.31,South,180,6.1,6.1,66,0.00,CLR,SKC,0.43,WeatherDisplay:10.37,2013-01-30 20:33:00,
2013-01-30 15:38:00,50.7,39.8,29.31,South,180,6.1,6.1,66,0.00,CLR,SKC,0.43,WeatherDisplay:10.37,2013-01-30 20:38:00,
2013-01-30 15:43:00,50.7,39.8,29.31,South,180,6.1,6.1,66,0.00,CLR,SKC,0.43,WeatherDisplay:10.37,2013-01-30 20:43:00,
2013-01-30 15:48:00,50.7,39.8,29.31,South,180,6.1,6.1,66,0.00,CLR,SKC,0.43,WeatherDisplay:10.37,2013-01-30 20:48:00,
2013-01-30 15:53:00,50.7,39.8,29.31,South,180,6.1,6.1,66,0.00,CLR,SKC,0.43,WeatherDisplay:10.37,2013-01-30 20:53:00,
2013-01-30 15:58:00,50.7,39.8,29.31,South,180,6.1,6.1,66,0.00,CLR,SKC,0.43,WeatherDisplay:10.37,2013-01-30 20:58:00,
2013-01-30 16:03:00,50.7,39.8,29.31,South,180,6.1,6.1,66,0.00,CLR,SKC,0.43,WeatherDisplay:10.37,2013-01-30 21:03:00,
2013-01-30 16:08:00,50.7,39.8,29.31,South,180,6.1,6.1,66,0.00,CLR,SKC,0.43,WeatherDisplay:10.37,2013-01-30 21:08:00,
2013-01-30 16:13:00,50.7,39.8,29.31,South,180,6.1,6.1,66,0.00,CLR,SKC,0.43,WeatherDisplay:10.37,2013-01-30 21:13:00,
2013-01-30 16:18:00,50.7,39.8,29.31,South,180,6.1,6.1,66,0.00,CLR,SKC,0.43,WeatherDisplay:10.37,2013-01-30 21:18:00,
2013-01-30 16:23:00,50.7,39.8,29.31,South,180,6.1,6.1,66,0.00,CLR,SKC,0.43,WeatherDisplay:10.37,2013-01-30 21:23:00,
2013-01-30 16:28:00,50.7,39.8,29.31,South,180,6.1,6.1,66,0.00,CLR,SKC,0.43,WeatherDisplay:10.37,2013-01-30 21:28:00,
2013-01-30 16:33:00,50.7,39.8,29.31,South,180,6.1,6.1,66,0.00,CLR,SKC,0.43,WeatherDisplay:10.37,2013-01-30 21:33:00,
2013-01-30 16:38:00,50.7,39.8,29.31,South,180,6.1,6.1,66,0.00,CLR,SKC,0.43,WeatherDisplay:10.37,2013-01-30 21:38:00,
2013-01-30 16:43:00,50.7,39.8,29.31,South,180,6.1,6.1,66,0.00,CLR,SKC,0.43,WeatherDisplay:10.37,2013-01-30 21:43:00,
2013-01-30 16:48:00,50.7,39.8,29.31,South,180,6.1,6.1,66,0.00,CLR,SKC,0.43,WeatherDisplay:10.37,2013-01-30 21:48:00,
2013-01-30 16:53:00,50.7,39.8,29.31,South,180,6.1,6.1,66,0.00,CLR,SKC,0.43,WeatherDisplay:10.37,2013-01-30 21:53:00,
2013-01-30 16:58:00,50.7,39.8,29.31,South,180,6.1,6.1,66,0.00,CLR,SKC,0.43,WeatherDisplay:10.37,2013-01-30 21:58:00,
2013-01-30 17:03:00,50.7,39.8,29.31,South,180,6.1,6.1,66,0.00,CLR,SKC,0.43,WeatherDisplay:10.37,2013-01-30 22:03:00,
2013-01-30 17:08:00,50.7,39.8,29.31,South,180,6.1,6.1,66,0.00,CLR,SKC,0.43,WeatherDisplay:10.37,2013-01-30 22:08:00,